Retour au catalogue

OPS 4682 DEB

ActifPO
NORAD 38367·DEBRIS·🇺🇸 United States

Lancé Apr 3, 1965 depuis Vandenberg Space Force Base

Loading…

Prochains Passages (prochaines 24 heures)

TLE

FraisSource: Space-Track

Époque: Sep 14, 2026, 06:51 UTC

1 38367U 65027BU  26257.28589916 -.00000096  00000-0 -35687-3 0  9996
2 38367  90.2512  12.7781 0033572 257.1313 102.6056 12.96736340320428

Suivez OPS 4682 DEB en temps réel avec AllMySat

Download on the App Store